Regional Weather Roundup
Issued by NWS Bismarck, ND

Home | Current Version | Previous Version | Text Only | Print | Product List | Glossary On
Versions: 1 2 3 4 5 6 7 8 9 10 11 12 13 14 15 16 17 18 19 20 21 22 23 24 25 26 27 28 29 30 31 32 33 34 35 36 37 38 39 40 41 42 43 44 45 46 47 48 49 50
000
ASUS43 KBIS 240110
RWRBIS

NWR BROADCAST TEXT
NATIONAL WEATHER SERVICE BISMARCK ND
800 PM CDT MON MAY 23 2016

NOTE: "FAIR" INDICATES FEW OR NO CLOUDS BELOW 12,000 FEET WITH NO
SIGNIFICANT WEATHER AND/OR OBSTRUCTIONS TO VISIBILITY.


CITY           SKY/WX    TMP DP  RH WIND       PRES   REMARKS
WILLISTON      CLOUDY    68  36  30 W17G25    29.68R
MINOT          TSTM      69  40  34 NW6       29.66R
MINOT AFB      MOSUNNY   71  36  27 W15       29.64R
BISMARCK       SUNNY     71  39  31 W7        29.68R
DICKINSON      MOSUNNY   61  41  47 SE8       29.70S
GARRISON         N/A     65  41  41 S24G40    29.70R
HETTINGER ARPT PTSUNNY   67  37  33 NE10      29.73R
JAMESTOWN      SUNNY     71  51  49 S7        29.66S
BEACH          FAIR      63  34  34 W17       29.76R
CARRINGTON     FAIR      77  39  25 W12       29.69R
HAZEN          FAIR      68  36  30 SW14G23   29.74R
LINTON         FAIR      73  50  43 S7          N/A
MANDAN         FAIR      66  43  42 W7        29.69S
OAKES            N/A    N/A N/A N/A MISG        N/A
RUGBY          FAIR      73  32  21 W12G30    29.66R
STANLEY        FAIR      66  37  34 W21       29.70R
WATFORD CITY   FAIR      66  37  34 W16       29.70R
$$

CITY           SKY/WX    TMP DP  RH WIND       PRES   REMARKS
GRAND FORKS    PTCLDY    77  52  41 SW5       29.64S
GRAND FORKS AF CLEAR     76  53  45 SW5       29.65S
DEVILS LAKE    MOSUNNY   74  43  32 W9        29.67S
FARGO          CLOUDY    76  47  35 NE8       29.66F
CAVALIER       FAIR      77  39  25 SW7       29.64S
GRAFTON        DRIZZLE   70  48  46 W26G41    29.68R
GWINNER        FAIR      79  52  38 S8        29.68S
LANGDON        FAIR      68  39  34 W21       29.68R
ROLLA          FAIR      68  36  30 NW9       29.68S
WALHALLA       FAIR      77  37  24 SW8       29.64S
$$

CITY           SKY/WX    TMP DP  RH WIND       PRES   REMARKS
ABERDEEN       PTCLDY    77  49  37 S7        29.68S
MOBRIDGE       SUNNY     74  50  42 SE9       29.65F
BUFFALO          N/A     70  34  26 NW18      29.65R
RAPID CITY     SUNNY     67  29  24 W9        29.71R
GLASGOW        CLOUDY    58  41  53 W13       29.70R
SIDNEY         PTSUNNY   66  37  34 W13       29.69R
WOLF POINT     PTSUNNY   60  46  59 W15       29.71R
GLENDIVE       PTSUNNY   64  37  36 W14       29.75R
MILES CITY     MOSUNNY   66  31  27 W15G23    29.74R
BAKER          MOSUNNY   64  35  34 NW16      29.75R
$$

CITY           SKY/WX    TMP DP  RH WIND       PRES   REMARKS
BILLINGS       CLOUDY    58  35  42 N10G22    29.81R
GREAT FALLS    LGT RAIN  44  41  89 N8        29.82R
REGINA         PTSUNNY   55  46  71 W5        29.60R
ESTEVAN        PTSUNNY   64  39  39 SW21G31   29.65R
$$




USA.gov is the U.S. government's official web portal to all federal, state and local government web resources and services.